Location: Marse
(42.1502°N, 110.9866°W)
Time: 00:50:27
(UTC+00:00)

ITAMSAT 1 - Pass Details

Date: 06 July 2022
Orbit: 784 x 795 km, 98.9° (Epoch: 07 August)

Event Time Altitude Azimuth Distance (km) Brightness Sun altitude
Rises 03:30:18 0° 201° (SSW) 3,261 10.7 -5.0°
Reaches altitude 10° 03:33:07 10° 217° (SW) 2,339 10.1 -5.4°
Maximum altitude 03:37:03 22° 266° (W) 1,676 10.1 -6.0°
Drops below altitude 10° 03:41:01 10° 316° (NW) 2,358 11.9 -6.6°
Sets 03:43:53 0° 332° (NNW) 3,294 12.3 -7.0°
